Weather History for Caribou, ME

Change the Weather History Date:

Wednesday, January 9, 2013

  Actual Average Record
Temperature  
Mean Temperature 23 °F 10 °F  
Max Temperature 32 °F 20 °F 46 °F (1978)
Min Temperature 14 °F 1 °F -26 °F (1973)
Degree Days  
Heating Degree Days 42 55  
Month to date heating degree days 511 484  
Since 1 July heating degree days 3691 4078  
Cooling Degree Days 0 0  
Month to date cooling degree days 0 0  
Year to date cooling degree days 0 0  
Moisture  
Dew Point 24 °F    
Average Humidity 83    
Maximum Humidity 100    
Minimum Humidity 66    
Precipitation  
Precipitation 0.11 in 0.09 in 1.05 in (1999)
Month to date precipitation 0.89 0.81  
Year to date precipitation 0.89 0.81  
Snow  
Snow 2.50 in 0.80 in 15.10 in (1999)
Month to date snowfall 8.0 7.3  
Since 1 July snowfall 36.5 42.4  
Snow Depth 7.00 in    
Sea Level Pressure  
Sea Level Pressure 29.99 in    
Wind  
Wind Speed 5 mph (South)    
Max Wind Speed 14 mph    
Max Gust Speed 20 mph    
Visibility 4 miles    
Events Fog , Snow    
T = Trace of Precipitation, MM = Missing Value Source: NWS Daily Summary

Daily Weather History Graph

Daily Weather History Graph

Search for Another Location

Airport:

Trip Planner

Search our weather history database for the weather conditions in past years. The results will help you decide how hot, cold, wet, or windy it might be!

Date:

Astronomy

Jan. 09, 2013 Rise Set
Actual Time 7:15 AM EST 4:03 PM EST
Civil Twilight 6:41 AM EST 4:37 PM EST
Nautical Twilight 6:03 AM EST 5:15 PM EST
Astronomical Twilight 5:26 AM EST 5:52 PM EST
Moon 4:51 AM EST (1/9) 2:00 PM EST (1/9)
Length of Visible Light 9h 56m
Length of Day
8h 47m
Waning Crescent, 6% of the Moon is Illuminated
Jan 9
Waning Crescent
Jan 11
New
Jan 18
First Quarter
Jan 26
Full
Feb 3
Last Quarter

Hourly Weather History & Observations

Time (EST) Temp. Windchill Dew Point Humidity Pressure Visibility Wind Dir Wind Speed Gust Speed Precip Events Conditions
12:54 AM 23.0 °F 18.4 °F 19.9 °F 88% 30.27 in 7.0 mi WNW 3.5 mph - N/A   Partly Cloudy
1:54 AM 19.9 °F - 18.0 °F 92% 30.30 in 2.0 mi Calm Calm - N/A   Clear
2:13 AM 23.0 °F 18.4 °F 19.4 °F 86% 30.25 in 4.0 mi SW 3.5 mph - N/A   Clear
2:54 AM 21.9 °F 14.5 °F 19.9 °F 92% 30.30 in 5.0 mi WSW 5.8 mph - N/A   Clear
3:54 AM 21.9 °F 17.2 °F 19.9 °F 92% 30.31 in 4.0 mi WSW 3.5 mph - N/A   Mostly Cloudy
4:28 AM 21.2 °F 14.9 °F 19.4 °F 93% 30.27 in 4.0 mi West 4.6 mph - N/A   Scattered Clouds
4:54 AM 16.0 °F 10.4 °F 12.0 °F 84% 30.31 in 4.0 mi SW 3.5 mph - N/A   Clear
5:54 AM 19.0 °F 11.1 °F 17.1 °F 92% 30.32 in 2.5 mi West 5.8 mph - N/A   Partly Cloudy
6:09 AM 15.8 °F - 14.0 °F 93% 30.28 in 3.0 mi Calm Calm - N/A   Mostly Cloudy
6:50 AM 19.4 °F 14.3 °F 15.8 °F 86% 30.30 in 5.0 mi West 3.5 mph - N/A   Overcast
6:54 AM 19.9 °F - 17.1 °F 89% 30.34 in 5.0 mi Calm Calm - N/A   Overcast
7:33 AM 15.8 °F - 12.2 °F 86% 30.31 in 2.5 mi Calm Calm - N/A   Overcast
7:41 AM 15.8 °F - 12.2 °F 86% 30.31 in 4.0 mi Calm Calm - N/A   Overcast
8:51 AM 17.6 °F - 15.8 °F 93% 30.29 in 3.0 mi Calm Calm - N/A   Overcast
8:54 AM 18.0 °F - 15.1 °F 88% 30.33 in 3.0 mi Calm Calm - N/A   Overcast
10:54 AM 23.0 °F - 21.9 °F 96% 30.28 in 4.0 mi Calm Calm - N/A   Overcast
11:12 AM 24.8 °F - 21.2 °F 86% 30.22 in 5.0 mi Calm Calm - N/A   Scattered Clouds
11:54 AM 26.1 °F 21.9 °F 21.9 °F 84% 30.22 in 5.0 mi ESE 3.5 mph - N/A   Clear
12:54 PM 28.9 °F 21.9 °F 23.0 °F 78% 30.17 in 9.0 mi SE 6.9 mph - N/A   Clear
1:54 PM 28.9 °F 20.4 °F 21.9 °F 75% 30.10 in 10.0 mi SE 9.2 mph - N/A   Clear
2:54 PM 30.0 °F 23.2 °F 21.9 °F 72% 30.06 in 10.0 mi South 6.9 mph - N/A   Clear
3:23 PM 30.2 °F 19.8 °F 23.0 °F 75% 30.01 in 10.0 mi SSE 13.8 mph 19.6 mph N/A   Mostly Cloudy
3:54 PM 30.9 °F 21.7 °F 23.0 °F 72% 30.02 in 10.0 mi SSE 11.5 mph - N/A   Overcast
4:54 PM 32.0 °F 24.2 °F 23.0 °F 69% 29.97 in 10.0 mi SSE 9.2 mph - N/A   Overcast
5:54 PM 32.0 °F 24.8 °F 24.1 °F 73% 29.94 in 10.0 mi South 8.1 mph - N/A   Overcast
6:52 PM 30.2 °F 21.3 °F 24.8 °F 80% 29.83 in 1.8 mi SSE 10.4 mph - 0.00 in Snow Light Snow
6:54 PM 30.9 °F 21.7 °F 25.0 °F 79% 29.87 in 1.8 mi South 11.5 mph - 0.00 in Snow Light Snow
7:10 PM 30.2 °F 21.9 °F 26.6 °F 86% 29.81 in 1.2 mi South 9.2 mph - 0.00 in Snow Light Snow
7:17 PM 30.2 °F 22.6 °F 26.6 °F 86% 29.80 in 1.8 mi SSE 8.1 mph - 0.00 in Snow Light Snow
7:28 PM 30.2 °F 21.9 °F 26.6 °F 86% 29.79 in 1.2 mi South 9.2 mph - 0.01 in Snow Light Snow
7:35 PM 30.2 °F 21.9 °F 26.6 °F 86% 29.78 in 1.8 mi South 9.2 mph - 0.01 in Snow Light Snow
7:43 PM 30.2 °F 21.9 °F 26.6 °F 86% 29.78 in 2.0 mi South 9.2 mph - 0.01 in Snow Light Snow
7:50 PM 30.2 °F 22.6 °F 28.4 °F 93% 29.77 in 1.5 mi South 8.1 mph - 0.01 in Snow Light Snow
7:54 PM 30.0 °F 22.4 °F 28.0 °F 92% 29.81 in 1.0 mi South 8.1 mph - 0.01 in Snow Light Snow
8:03 PM 30.2 °F 22.6 °F 28.4 °F 93% 29.76 in 0.8 mi South 8.1 mph - N/A Snow Light Snow
8:07 PM 30.2 °F 21.9 °F 28.4 °F 93% 29.76 in 1.0 mi South 9.2 mph - 0.01 in Snow Light Snow
8:23 PM 30.2 °F 22.6 °F 28.4 °F 93% 29.76 in 0.8 mi South 8.1 mph - 0.02 in Snow Light Snow
8:33 PM 30.2 °F 22.6 °F 28.4 °F 93% 29.75 in 0.5 mi South 8.1 mph - 0.04 in Fog , Snow Snow
8:51 PM 30.2 °F 22.6 °F 28.4 °F 93% 29.73 in 1.0 mi South 8.1 mph - 0.06 in Snow Light Snow
9:17 PM 30.2 °F 23.4 °F 28.4 °F 93% 29.71 in 0.8 mi South 6.9 mph - 0.02 in Snow Light Snow
9:30 PM 30.2 °F 23.4 °F 28.4 °F 93% 29.70 in 1.2 mi South 6.9 mph - 0.02 in Snow Light Snow
9:54 PM 30.9 °F 23.5 °F 30.0 °F 96% 29.72 in 1.5 mi South 8.1 mph - 0.03 in Snow Light Snow
10:08 PM 30.2 °F 24.3 °F 30.2 °F 100% 29.68 in 1.2 mi South 5.8 mph - 0.01 in Snow Light Snow
10:17 PM 32.0 °F 25.6 °F 30.2 °F 93% 29.68 in 1.8 mi SSW 6.9 mph - 0.01 in Snow Light Snow
10:20 PM 32.0 °F 26.4 °F 30.2 °F 93% 29.67 in 2.0 mi SSW 5.8 mph - 0.01 in Snow Light Snow
10:31 PM 32.0 °F 24.8 °F 30.2 °F 93% 29.67 in 4.0 mi SSW 8.1 mph - 0.01 in Snow Light Snow
10:47 PM 32.0 °F 24.2 °F 30.2 °F 93% 29.66 in 9.0 mi SSW 9.2 mph - 0.01 in   Overcast
10:54 PM 32.0 °F 23.0 °F 30.0 °F 92% 29.69 in 10.0 mi SW 11.5 mph - 0.01 in   Overcast
11:16 PM 32.0 °F 25.6 °F 30.2 °F 93% 29.64 in 10.0 mi Variable 6.9 mph - N/A   Overcast
11:42 PM 32.0 °F 25.6 °F 30.2 °F 93% 29.64 in 8.0 mi SSW 6.9 mph - N/A   Overcast
11:54 PM 32.0 °F 25.6 °F 30.0 °F 92% 29.67 in 7.0 mi SW 6.9 mph - N/A   Overcast